www.pogodaiklimat.ru
Время
(UTC), дата
01 13.10
02 13.10
03 13.10
04 13.10
05 13.10
06 13.10
07 13.10
08 13.10
09 13.10
10 13.10
11 13.10
12 13.10
13 13.10
14 13.10
15 13.10
16 13.10
17 13.10
18 13.10
19 13.10
20 13.10
21 13.10
22 13.10
23 13.10
00 14.10
01 14.10
02 14.10
03 14.10
04 14.10
05 14.10
06 14.10
07 14.10
08 14.10
09 14.10
10 14.10
11 14.10
12 14.10
13 14.10
14 14.10
15 14.10
16 14.10
17 14.10
18 14.10
19 14.10
20 14.10
21 14.10
22 14.10
23 14.10
00 15.10
01 15.10
02 15.10
03 15.10
04 15.10
05 15.10
06 15.10
07 15.10
08 15.10
09 15.10
10 15.10
11 15.10
12 15.10
13 15.10
14 15.10
15 15.10
16 15.10
17 15.10
18 15.10
19 15.10
20 15.10
21 15.10
22 15.10
23 15.10
00 16.10
01 16.10
02 16.10
03 16.10
04 16.10
05 16.10
06 16.10
07 16.10
08 16.10
09 16.10
10 16.10
11 16.10
12 16.10
13 16.10
14 16.10
15 16.10
16 16.10
17 16.10
18 16.10
19 16.10
20 16.10
21 16.10
22 16.10
23 16.10
00 17.10
01 17.10
02 17.10
03 17.10
04 17.10
05 17.10
06 17.10
07 17.10
08 17.10
09 17.10
10 17.10
11 17.10
12 17.10
13 17.10
14 17.10
15 17.10
16 17.10
17 17.10
18 17.10
19 17.10
20 17.10
21 17.10
22 17.10
23 17.10
00 18.10
01 18.10
02 18.10
03 18.10
04 18.10
05 18.10
06 18.10
07 18.10
08 18.10
09 18.10
10 18.10
11 18.10
12 18.10
13 18.10
14 18.10
15 18.10
16 18.10
17 18.10
18 18.10
19 18.10
20 18.10
21 18.10
22 18.10
23 18.10
00 19.10
01 19.10
02 19.10
03 19.10
04 19.10
05 19.10
06 19.10
07 19.10
08 19.10
11 19.10
12 19.10
13 19.10
14 19.10
15 19.10
16 19.10
17 19.10
18 19.10
19 19.10
20 19.10
21 19.10
22 19.10
23 19.10
Ветер
(напр.,м/с)
Видим. Явления Облачность Т
(С)
Тd
(С)
f
(%)
Тe
(С)
Тes
(С)
Комфортность P
(гПа)
Po
(гПа)
Тmin
(С)
Tmax
(С)
R
(мм)
R24
(мм)
S
(см)
ЮЗ 1 200 м туман 10/10 <50 м
[]
+6.2 +5.8 97 +5 +5 тепло 1016.5 971.2
ЮВ 1 100 м туман н/о +5.8 +5.5 98 +4 +4 тепло 1015.8 970.5
ЮВ 2
{3}
100 м туман 10/9 30 м
[St]
+5.9 +5.9 100 +3 +3 прохладно 1015.4 970.1
Ю 3 600 м туман 9/9 <50 м
[St]
+6.3 +6.3 100 +3 +3 по сезону 1014.9 969.7
Ю 2 400 м туман 9/9 <50 м
[St]
+6.2 +6.2 100 +4 +4 по сезону 1014.6 969.4
ЮВ 3
{4}
100 м слаб. ливневой дождь {туман} 10/10 30 м
[St]
+6.1 +6.1 100 +3 +3 прохладно 1014.4 969.2 +5.6 0.0
ЮВ 3 500 м туман 10/9 <50 м
[St]
+6.1 +6.1 100 +3 +3 по сезону 1014.1 968.9
ЮВ 4 500 м туман 10/9 <50 м
[St]
+6.2 +6.2 100 +2 +2 по сезону 1014.0 968.8
ЮВ 4
{5}
6000 м в посл. час туман 9/9 90 м
[Cu Sc]
+6.5 +6.2 98 +3 +3 холодно 1013.8 968.7
ЮВ 4 12 км 9/4 200 м
[Cu Sc]
+8.0 +5.8 86 +5 +6 по сезону 1013.3 968.4
ЮВ 4 15 км 9/5 300 м
[Cu Sc]
+8.2 +5.7 84 +5 +6 по сезону 1013.0 968.2
ЮВ 4
{7}
15 км {туман} 8/8 480 м
[Cu Sc Ac trans]
+9.0 +5.6 79 +6 +8 прохладно 1012.6 967.9
Ю 5 18 км 9/4 300 м
[Cu Sc]
+10.1 +4.9 70 +7 +8 прохладно 1011.9 967.4
ЮВ 4 25 км 9/1 300 м
[Cu Sc]
+9.7 +5.1 73 +7 +8 по сезону 1011.5 967.0
В 3
{8}
25 км 8/3 540 м
[Cu Sc Ac As Ci fib]
+9.4 +5.1 74 +7 +8 прохладно 1011.4 966.8
В 3 25 км 8/1 600 м
[Cu Sc]
+9.7 +4.8 71 +8 +8 по сезону 1011.4 966.9
В 3 25 км 8/1 600 м
[Sc diur, vesp]
+8.8 +4.7 75 +6 +6 по сезону 1011.8 967.1
В 3
{8}
25 км 9/1 1440 м
[Sc diur, vesp Ac As Ci fib]
+8.4 +4.6 77 +6 +6 прохладно 1012.3 967.5 +10.6
В 3 25 км 9/1 1500 м
[Sc]
+7.7 +4.9 82 +5 +5 по сезону 1012.8 967.9
В 4 25 км 9/0
[]
+7.2 +4.9 85 +4 +4 по сезону 1013.2 968.2
СВ 5
{6}
15 км 9/0
[Ac As]
+7.2 +4.7 84 +3 +3 холодно 1013.5 968.5
СВ 5 12 км 9/0
[]
+7.0 +4.7 85 +3 +3 прохладно 1013.5 968.5
СВ 6 11 км 9/0
[]
+6.6 +4.6 87 +2 +2 по сезону 1013.8 968.7
СВ 5
{7}
11 км 9/0
[Ac As]
+6.4 +4.4 87 +2 +2 прохладно 1014.1 968.9
СВ 4 15 км 10/10 1500 м
[]
+6.2 +4.1 86 +2 +2 прохладно 1014.2 969.0
СВ 5 15 км 5/5 1500 м
[]
+5.6 +3.5 86 +1 +1 по сезону 1014.4 969.1
СВ 5
{7}
20 км 9/8 2000 м
[Sc Ac trans]
+5.8 +3.2 83 +1 +1 холодно 1014.3 969.0
СВ 5 20 км 4/4 2000 м
[Sc]
+4.9 +2.8 86 0 0 прохладно 1014.4 969.0
СВ 6 20 км 3/3 2000 м
[Sc]
+4.6 +2.8 88 -1 -1 по сезону 1014.9 969.4
СВ 5
{8}
12 км 3/0
[Ci fib]
+4.3 +3.0 91 -1 -1 холодно 1015.1 969.5 +4.3
СВ 5 20 км 3/0
[]
+4.8 +3.3 90 0 0 прохладно 1015.6 970.1
СВ 4 15 км 9/8 1500 м
[Sc]
+5.9 +3.9 87 +2 +2 по сезону 1015.9 970.6
СВ 6
{8}
20 км 9/0
[Ac trans Ci fib]
+7.2 +4.2 81 +3 +4 холодно 1016.0 970.9
СВ 6 25 км 9/1 300 м
[Cu Sc]
+8.4 +4.6 77 +5 +5 по сезону 1015.9 971.0
СВ 6 25 км 9/3 300 м
[Cu Sc]
+8.6 +4.8 77 +5 +6 по сезону 1016.1 971.2
СВ 5
{9}
30 км 9/1 500 м
[Cu Sc Ac trans Ci fib]
+10.0 +5.2 72 +7 +8 прохладно 1015.5 970.8
СВ 6 35 км 9/3 600 м
[Cu med, cong]
+10.3 +4.7 68 +7 +8 по сезону 1015.1 970.5
СВ 7 35 км 9/3 600 м
[Cu Sc]
+10.2 +3.8 64 +7 +7 по сезону 1015.0 970.4
СВ 6
{13}
35 км 9/9 800 м
[Cu med, cong As trans]
+10.0 +3.4 64 +7 +7 прохладно 1015.2 970.5
С 6
{9}
35 км 8/1 800 м
[Cu hum As trans]
+9.3 +3.5 67 +6 +6 по сезону 1015.4 970.6
СВ 5 30 км 9/1 1000 м
[Cu hum]
+8.7 +3.4 69 +5 +5 по сезону 1015.7 970.8
С 5
{13}
35 км 9/1 1350 м
[Cu hum As trans]
+8.1 +3.2 71 +5 +5 прохладно 1016.1 971.1 +10.5
С 5 35 км слаб. дождь 10/1 1000 м
[Cu hum]
+7.8 +3.7 75 +4 +4 прохладно 1016.1 971.1
СВ 7 25 км 9/8 1000 м
[Sc]
+7.6 +3.9 77 +3 +3 по сезону 1016.4 971.3
СВ 6
{9}
25 км 9/9 1000 м
[Sc]
+7.2 +4.2 81 +3 +3 прохладно 1016.7 971.5
С 6 20 км слаб. дождь 8/1 600 м
[Sc]
+6.5 +4.7 88 +2 +2 прохладно 1016.8 971.5
С 6 12 км слаб. дождь 9/9 600 м
[Sc]
+6.2 +4.9 91 +1 +1 по сезону 1016.8 971.5
С 5
{9}
8000 м слаб. дождь 10/9 270 м
[Cu Sc]
+6.1 +5.1 93 +2 +2 прохладно 1016.8 971.5 0.5 0.5
С 5 9000 м морось {дождь} 10/5 300 м
[]
+6.0 +5.0 93 +2 +2 по сезону 1016.8 971.5
С 5 11 км {дождь, морось} 10/4 600 м
[]
+5.9 +4.9 93 +1 +1 по сезону 1016.5 971.2
С 4
{7}
12 км {дождь} 9/9 600 м
[Sc]
+5.9 +4.9 93 +2 +2 прохладно 1016.2 970.9
С 5 15 км 9/9 600 м
[Sc]
+5.9 +4.9 93 +1 +1 прохладно 1016.0 970.7
С 5 5000 м слаб. морось 10/3 100 м
[Sc]
+6.0 +5.0 93 +2 +2 по сезону 1016.4 971.1
С 6
{10}
12 км в посл. час морось {дождь} 10/9 300 м
[Sc]
+6.2 +5.0 92 +1 +1 прохладно 1016.6 971.3 +5.9 1
С 5 20 км 10/3 200 м
[Sc]
+6.4 +5.1 91 +2 +2 по сезону 1017.2 971.9
С 6 8000 м 10/5 200 м
[Sc]
+6.4 +5.2 92 +2 +2 по сезону 1017.4 972.1
С 6
{9}
6000 м слаб. морось 10/9 240 м
[Sc]
+6.7 +5.2 90 +2 +2 холодно 1017.8 972.5
С 7 20 км в посл. час морось 10/5 200 м
[Sc]
+7.3 +5.5 88 +3 +3 прохладно 1017.6 972.4
С 6 н/о 10/5 200 м
[Sc]
+7.7 +5.4 85 +3 +4 по сезону 1017.5 972.4
СВ 7
{11}
25 км {морось} 10/9 330 м
[Sc]
+7.9 +5.4 84 +3 +4 очень
холодно
1017.5 972.4 0.0
С 6 20 км слаб. дождь 10/3 200 м
[Cu Sc]
+7.9 +5.4 84 +4 +4 холодно 1017.2 972.1
СВ 6 25 км в посл. час дождь 10/1 200 м
[Cu Sc]
+8.0 +5.5 84 +4 +4 прохладно 1017.6 972.5
СВ 6
{9}
20 км {дождь} 10/10 300 м
[Cu Sc]
+7.9 +5.4 84 +4 +4 холодно 1018.1 973.0
С 6 20 км 10/1 300 м
[Cu Sc]
+7.9 +5.4 84 +4 +4 прохладно 1018.0 972.9
С 7 7000 м слаб. морось {дождь} 10/1 100 м
[St]
+7.3 +5.9 91 +2 +2 прохладно 1018.4 973.2
С 6
{9}
8000 м слаб. морось {дождь} 10/10 150 м
[St]
+7.2 +5.8 91 +3 +3 холодно 1018.9 973.7 +8.2 0.0
С 5 12 км слаб. морось 10/4 200 м
[St]
+7.3 +5.8 90 +3 +3 прохладно 1019.1 973.9
С 7 15 км в посл. час морось 9/3 200 м
[Sc]
+7.5 +5.7 88 +3 +3 по сезону 1019.0 973.8
С 7
{11}
20 км {морось} 9/9 450 м
[Sc]
+7.6 +5.6 87 +3 +3 прохладно 1019.4 974.2
С 6 20 км 9/3 300 м
[Sc]
+7.7 +5.7 87 +3 +3 прохладно 1019.7 974.5
СВ 7 20 км 9/1 300 м
[Sc]
+7.9 +5.7 86 +3 +3 по сезону 1019.3 974.2
СВ 6
{11}
40 км 10 баллов +7.8 +5.8 87 +4 +4 по сезону 1019.6 974.4 0.4
СВ 5 29 км 10/1 300 м
[]
+7.9 +5.7 86 +4 +4 по сезону 1019.9 974.7
С 6 23 км 10/10 300 м
[]
+7.8 +5.6 86 +4 +4 по сезону 1019.8 974.6
С 7
{9}
20 км 9/9 450 м
[Sc]
+7.7 +5.5 86 +3 +3 по сезону 1019.6 974.4
СВ 6 20 км 9/9 300 м
[Sc]
+7.6 +5.4 86 +3 +3 по сезону 1019.6 974.4
С 6 15 км слаб. дождь 9/4 300 м
[Sc]
+7.4 +5.4 87 +3 +3 по сезону 1020.0 974.7
СВ 6
{9}
15 км в посл. час дождь 10/9 450 м
[Sc]
+7.4 +5.2 86 +3 +3 по сезону 1020.0 974.7 +7.1
С 7 25 км 10/3 300 м
[Sc]
+7.5 +5.0 84 +3 +3 по сезону 1020.3 975.0
СВ 6 25 км 10/5 300 м
[Sc]
+7.8 +5.1 83 +4 +4 тепло 1020.4 975.2
СВ 6
{10}
25 км 10/9 360 м
[Sc]
+8.4 +5.4 81 +4 +5 прохладно 1020.6 975.5
СВ 6 25 км 10/9 300 м
[Sc]
+9.2 +5.6 78 +6 +6 по сезону 1020.9 975.9
СВ 6 25 км 10/9 300 м
[Sc]
+9.4 +5.8 78 +6 +6 тепло 1020.8 975.8
СВ 5
{10}
25 км 10/9 420 м
[Sc]
+9.5 +5.7 77 +6 +6 прохладно 1020.7 975.7 0.1
СВ 5 25 км 10/9 300 м
[Sc]
+9.1 +6.0 81 +6 +6 по сезону 1020.7 975.7
СВ 6 25 км 10/9 300 м
[Sc]
+9.0 +5.8 80 +5 +5 по сезону 1020.7 975.7
СВ 5
{9}
25 км 9/9 360 м
[Sc]
+8.9 +5.9 81 +5 +6 прохладно 1020.7 975.6
СВ 5 25 км 10/4 300 м
[Sc]
+8.6 +5.9 83 +5 +5 по сезону 1020.6 975.5
СВ 3 25 км 10/1 300 м
[Sc]
+8.4 +6.1 85 +6 +6 по сезону 1020.8 975.7
СВ 4
{9}
25 км 9/9 500 м
[Sc]
+8.2 +6.0 86 +5 +5 прохладно 1021.5 976.3 +9.7 0.1
СВ 5 20 км 9/4 600 м
[Sc]
+8.1 +5.8 85 +4 +4 по сезону 1021.4 976.2
СВ 4 20 км 9/1 300 м
[Sc]
+7.9 +5.9 87 +5 +5 по сезону 1021.5 976.3
СВ 4
{7}
20 км 9/9 330 м
[Sc]
+7.8 +5.8 87 +4 +4 прохладно 1021.7 976.4
СВ 4 12 км 9/1 200 м
[Sc]
+7.5 +5.8 89 +4 +4 по сезону 1021.7 976.4
СВ 4 15 км 9/9 1000 м
[Sc]
+7.3 +5.1 86 +4 +4 по сезону 1021.5 976.2
СВ 4
{7}
20 км 9/9 960 м
[Sc]
+7.1 +5.1 87 +4 +4 по сезону 1021.3 975.9 0.1
СВ 4 24 км 10/10 1000 м
[]
+7.1 +4.6 84 +4 +4 по сезону 1021.0 975.6
С 3 23 км 10/10 1000 м
[]
+6.8 +4.3 84 +4 +4 тепло 1020.7 975.3
С 3
{5}
15 км 9/9 1020 м
[Sc]
+6.5 +4.5 87 +3 +3 по сезону 1020.5 975.1
С 4
{5}
15 км 9/9 1000 м
[Sc]
+6.3 +4.3 87 +2 +2 по сезону 1020.6 975.1
С 4 15 км 9/9 1000 м
[Sc]
+6.3 +4.1 86 +3 +3 тепло 1020.5 975.0
СВ 3
{7}
9000 м 9/9 300 м
[Sc]
+6.3 +4.0 85 +3 +3 по сезону 1020.4 974.9 +6.2
СВ 3 5000 м 9/1 300 м
[Sc]
+5.8 +4.1 89 +2 +3 по сезону 1020.7 975.1
СВ 4 8000 м 9/9 1000 м
[Sc]
+6.4 +4.1 85 +3 +3 тепло 1020.9 975.4
СВ 4
{5}
10 км 9/9 1230 м
[Sc]
+6.9 +3.9 81 +3 +4 прохладно 1020.9 975.5
В 3 17 км 6/6 1000 м
[Sc]
+8.2 +2.3 66 +6 +7 по сезону 1020.7 975.5
В 3 24 км 5/1 600 м
[Cu Sc]
+10.0 +2.9 61 +8 +11 тепло 1020.4 975.5
нст 4
{6}
35 км 8/6 900 м
[Cu Sc Ac trans Ci fib]
+10.5 +2.9 59 +8 +9 по сезону 1019.9 975.1
В 3 28 км 8/1 600 м
[Cu Sc]
+9.6 +3.2 64 +8 +9 по сезону 1020.1 975.2
С 4 26 км 9/1 600 м
[Cu Sc]
+8.8 +3.5 69 +6 +7 по сезону 1020.3 975.2
С 3
{8}
26 км 9/9 1110 м
[Sc]
+8.8 +3.5 69 +7 +7 по сезону 1020.3 975.2
С 3 22 км 9/6 1000 м
[Sc]
+8.6 +3.5 70 +6 +6 по сезону 1020.3 975.2
С 3 15 км 9/5 600 м
[Sc]
+7.7 +4.0 77 +5 +5 по сезону 1020.8 975.5
В 2
{8}
10 км 9/3 1050 м
[Sc Ac trans]
+7.2 +4.0 80 +5 +5 по сезону 1021.4 976.0 +10.7
8000 м 9/5 1000 м
[Sc]
+5.8 +4.1 89 1022.1 976.5
8000 м 9/5 1000 м
[Sc]
+5.6 +3.9 89 1022.4 976.7
нст 1
{3}
8000 м 9/9 1110 м
[Sc]
+5.2 +4.0 92 +4 +4 по сезону 1022.6 976.9
8000 м 9/9 1000 м
[Sc]
+6.0 +4.0 87 1022.5 976.9
З 1 6000 м 9/3 1000 м
[Sc]
+4.9 +3.9 93 +3 +3 по сезону 1022.7 976.9
С 1
{3}
6000 м ясно +4.0 +3.1 94 +2 +2 по сезону 1023.1 977.1
СВ 2 н/о 10/6 600 м
[]
+5.2 +3.4 88 +3 +3 по сезону 1023.0 977.2
Ю 1 н/о 10/10 600 м
[]
+5.8 +3.7 86 +5 +5 тепло 1023.0 977.3
З 1 6000 м ясно +4.6 +3.4 92 +3 +3 по сезону 1023.2 977.3
3000 м дымка 5/5 1500 м
[Sc]
+3.4 +2.7 95 1023.5 977.4
З 2 3000 м дымка 9/9 1500 м
[Sc]
+4.6 +3.6 93 +2 +2 тепло 1023.4 977.5
нст 1
{3}
3100 м дымка 10/10 1500 м
[Sc]
+4.9 +3.6 91 +4 +4 по сезону 1023.4 977.6 +3.4
ЮЗ 1 4100 м дымка 10/10 1500 м
[Sc]
+5.0 +4.0 93 +4 +4 тепло 1024.0 978.2
ЮЗ 2 5000 м дымка 10/10 1500 м
[Sc]
+5.7 +4.2 90 +3 +3 тепло 1024.3 978.6
Ю 2
{2}
5000 м дымка 10/10 1500 м
[Sc]
+6.5 +3.7 82 +4 +4 по сезону 1024.5 978.9
ЮЗ 2 8000 м 10/10 1500 м
[Sc]
+7.1 +4.3 82 +5 +5 по сезону 1024.6 979.1
ЮЗ 2 9000 м 9/9 1500 м
[Sc]
+8.1 +4.2 76 +6 +7 тепло 1024.5 979.1
ЮЗ 3
{4}
11 км 9/9 480 м
[Cu Sc]
+8.8 +4.8 76 +6 +8 по сезону 1023.9 978.7
Ю 3 9000 м 10/3 300 м
[Cu Sc]
+9.1 +5.5 78 +7 +8 по сезону 1023.6 978.4
ЮЗ 3 12 км 10/3 300 м
[Cu Sc]
+9.7 +5.0 73 +8 +8 тепло 1023.4 978.3
ЮЗ 3
{5}
18 км 10/9 630 м
[Sc]
+9.5 +4.6 71 +7 +7 по сезону 1023.1 978.0
З 3 14 км 10/4 300 м
[Sc]
+9.0 +5.0 76 +7 +7 тепло 1023.2 978.0
З 3 15 км 10/3 1000 м
[Sc]
+8.5 +5.1 79 +6 +6 тепло 1023.4 978.2
З 2
{6}
10 км 10/9 540 м
[Sc]
+8.0 +5.7 85 +6 +6 по сезону 1024.1 978.8 +9.7
З 2 9000 м 10/4 1000 м
[Sc]
+7.6 +6.1 90 +5 +5 по сезону 1024.2 978.8
З 2 6000 м 10/1 1000 м
[Sc]
+7.4 +6.0 91 +5 +5 тепло 1024.1 978.7
ЮЗ 2
{4}
6000 м 10/9 1350 м
[Sc]
+7.7 +6.0 89 +6 +6 по сезону 1024.4 979.0
З 2 6000 м в посл. час морось 10/5 1000 м
[Sc]
+7.4 +6.4 93 +5 +5 по сезону 1024.3 978.9
З 2 4000 м дымка 10/5 600 м
[Sc]
+7.0 +6.1 94 +5 +5 тепло 1024.3 978.8
З 2
{4}
4000 м дымка 10/9 1050 м
[Sc]
+7.0 +6.3 95 +5 +5 по сезону 1024.4 978.9 0.0
Ю 2 2200 м дымка 10/10 1500 м
[]
+7.0 +6.3 95 +5 +5 тепло 1024.2 978.7
ЮЗ 2 2800 м дымка 10/10 1500 м
[]
+6.8 +6.2 96 +4 +4 тепло 1024.1 978.6
нст 1
{3}
2500 м дымка 10/9 300 м
[Sc]
+6.6 +5.9 95 +5 +5 по сезону 1024.0 978.4
2500 м в посл. час ливневой дождь 10/10 1500 м
[Sc]
+6.8 +6.1 95 1023.6 978.1
2500 м дымка 10/10 1500 м
[Sc]
+6.4 +5.7 95 1023.7 978.1
В 2
{3}
1400 м местами туман поземный 9/9 30 м
[Sc]
+6.0 +5.4 96 +3 +3 по сезону 1023.5 977.9 +6.0 0.0
Ю 1 <100 м туман н/о +5.7 +5.7 100 +4 +4 тепло 1023.8 978.1
ЮВ 2 100 м туман н/о +6.6 +6.6 100 +4 +4 тепло 1023.9 978.4
Ю 3
{4}
12 км 8/8 400 м
[Cu hum]
+9.8 +6.0 77 +8 +8 тепло 1023.2 978.2
ЮВ 2
{5}
18 км {туман} 6/5 600 м
[Cu hum Ci fib]
+10.3 +6.1 75 +9 +11 тепло 1022.1 977.2
ЮВ 3 30 км 6/1 600 м
[Cu Sc]
+11.0 +4.3 63 +9 +11 тепло 1021.3 976.5
ЮВ 3 35 км 6/5 1000 м
[Sc]
+11.1 +3.7 60 +9 +10 тепло 1020.6 975.9
Ю 3
{6}
35 км 8/4 1050 м
[Sc Ci fib]
+10.9 +3.3 59 +9 +10 тепло 1020.3 975.5
ЮВ 3 35 км 6/1 1000 м
[Sc]
+10.5 +4.3 65 +9 +9 тепло 1019.5 974.7
В 3 35 км 5/0
[]
+8.9 +4.2 72 +7 +7 тепло 1019.6 974.6
В 3
{6}
35 км 5/0
[Ci fib]
+7.8 +3.9 76 +5 +5 по сезону 1019.4 974.2 +11.9
В 3 35 км 1/0
[]
+7.1 +3.7 79 +4 +4 по сезону 1019.2 973.9
В 3 30 км 3/0
[]
+6.9 +3.5 79 +4 +4 тепло 1018.6 973.3
В 4
{6}
35 км 3/0
[]
+7.1 +3.0 75 +4 +4 по сезону 1017.9 972.7
ЮВ 4 30 км 1/0
[]
+7.0 +2.7 74 +4 +4 по сезону 1017.1 971.9
В 3
{6}
30 км 1/0
[Ci fib]
+6.2 +2.7 78 +3 +3 тепло 1016.7 971.4
Местоположение метеостанции Люксембург (Люксембург): широта 49.62 долгота 6.20 высота над уровнем моря 376 м.
В архиве по умолчанию представлена погода в Люксембурге за последнюю неделю. Архивные данные за месяц целиком и за предыдущие месяцы, начиная с января 2011 года, Вы можете получить, выбрав интересующий диапазон дат из раскрывающегося списка и нажав кнопку "Найти!".
*Определитесь, кто Вы:
Внимание! Время в таблицах - всемирное. Для получения местного времени необходимо прибавить поправку, которая равна 1 ч.
Смотрите также архив погоды в соседних городах и на ближайших метеорологических станциях:
Партнеры нашего сайта:      
Пояснения к столбцам:
  • Ветер - указаны скорость ветра в м/с - средняя за 10 мин, порывы в срок и между сроками (в фигурных скобках) и направление, откуда дует ветер: С - северный,
  • СВ - северо-восточный, В - восточный, ЮВ - юго-восточный, Ю - южный, ЮЗ - юго-западный, З - западный, СЗ - северо-западный.
  • Видимость - горизонтальная дальность видимости в метрах или километрах. При видимости от 1 до 10 км при отсутствии осадков обычно наблюдается дымка, при ухудшении видимости до 1 км и менее - туман. В сухую погоду видимость может ухудшаться дымом, пылью или мглою.
  • Явления - указаны атмосферные явления, наблюдавшиеся в срок или в последний час перед сроком; фигурными скобками обозначены явления, наблюдавшиеся между сроками (за 1-3 часа до срока); квадратными скобками обозначены град или гололедные отложения с указанием их диаметра в мм.
  • Облачность - указаны через наклонную черту общая и нижняя облачность в баллах и высота нижней границы облаков в метрах; квадратными скобками обозначены формы облаков: Ci - перистые, Cs - перисто-слоистые, Cc - перисто-кучевые, Ac - высококучевые, As - высокослоистые, Sc - слоисто-кучевые, Ns - слоисто-дождевые, Cu - кучевые, Cb - кучево-дождевые. Подробнее классификацию облаков см. в Атласе облаков (PDF).
  • T - Температура воздуха - температура, измеренная на высоте 2 м над землей.
  • Td - Температура точки росы - температура, при понижении до которой содержащийся в воздухе водяной пар достигнет насыщения.
  • f - Относительная влажность воздуха - влажноcть воздуха, измеренная на высоте 2 м над землей.
  • Te - Эффективная температура - температура, которую ощущает одетый по сезону человек в тени. Характеристика душности погоды. При расчете учитывается влияние влажности воздуха и скорости ветра на теплоощущения человека.
  • Tes - Эффективная температура на солнце - температура, которую ощущает человек, с поправкой на солнечный нагрев. Характеристика знойности погоды. Зависит от высоты солнца над горизонтом, облачности и скорости ветра. Ночью, в пасмурную погоду, а также при ветре 12 м/с и более поправка равна нулю.
  • P - Атмосферное давление - приведенное к уровню моря атмосферное давление.
  • Po - Атмосферное давление - измеренное на уровне метеостанции атмосферное давление.
  • Tmin - Минимальная температура - минимум температуры воздуха на высоте 2 м над землей.
  • Tmax - Максимальная температура - максимум температуры воздуха на высоте 2 м над землей.
  • R - Количество осадков - Количество выпавших осадков за период времени, мм. При наведении курсора мыши на число - период времени, за который выпало указанное количество осадков.
  • R24 - Количество осадков - Количество выпавших осадков за 24 часа, мм.
  • S - Снежный покров - Высота снежного покрова, см. При наведении курсора мыши на число - состояние снежного покрова и степень покрытия местности в баллах.